Location: Bourg-d�Oueil
(42.8588°N, 0.4991°E)
Time: 02:48:41
(UTC+00:00)

BREEZE-M DEB (TANK) - Pass Details

Date: 16 June 2021
Orbit: 320 x 14773 km, 49.5° (Epoch: 04 August)

Event Time Altitude Azimuth Distance (km) Brightness Sun altitude
Rises 20:32:46 0° 226° (SW) 2,111 5.9 -8.6°
Reaches altitude 10° 20:34:29 10° 219° (SW) 1,221 4.6 -8.8°
Maximum altitude 20:36:38 46° 142° (SE) 501 2.2 -9.1°
Drops below altitude 10° 20:39:57 10° 67° (ENE) 1,884 5.3 -9.5°
Sets 20:43:24 0° 62° (ENE) 3,632 6.8 -9.9°
